Wind_Speed
7 8 9 9 10 11 11 11 10 8 8 8 10 10 11 11 12 12 11 11 11 10 6 2 3 3 3 3 3 4 3 2 0 4 8 10 11 13 15 15 16 17 12 10 13 13 14 14 14
6 7 8 8 9 10 12 12 10 9 8 8 7 9 8 10 10 10 10 10 9 9 10 7 4 3 3 3 3 3 2 2 1 3 3 5 7 10 13 13 12 14 12 11 10 11 12 11 11
6 8 8 9 9 10 11 13 12 11 11 10 10 9 9 8 7 8 8 8 8 8 7 7 7 5 3 4 4 3 4 3 4 4 3 4 6 7 9 12 12 12 11 11 10 12 12 12 13
8 10 11 12 12 11 11 10 11 13 12 11 11 10 9 9 9 9 9 9 8 8 7 7 7 6 6 5 4 5 6 6 6 6 6 6 6 6 8 9 10 12 12 12 12 12 13 14 15
11 13 13 13 13 13 12 9 9 11 13 13 10 10 9 10 10 10 11 11 11 10 10 9 8 8 8 7 6 5 5 7 9 9 9 9 8 9 9 9 10 11 13 14 14 14 14 15 16
13 15 16 15 14 14 13 11 11 12 12 13 14 11 9 7 6 7 9 11 12 12 12 13 12 11 10 9 9 8 8 8 8 10 12 13 12 12 12 13 12 12 13 14 15 16 16 17 18
15 18 19 17 13 11 12 13 14 13 14 16 16 16 14 11 11 11 9 8 11 13 13 14 15 15 14 14 13 13 11 10 10 10 11 12 16 16 16 16 16 16 16 17 17 17 17 18 20
19 22 21 19 16 12 12 13 15 16 18 19 20 18 16 14 14 14 14 12 12 13 13 13 14 16 17 17 17 16 17 16 15 14 13 13 14 16 18 19 20 20 20 21 20 20 20 20 20
22 23 21 19 17 15 15 15 16 18 20 23 20 20 17 15 14 15 18 17 15 15 15 15 14 15 15 16 18 19 20 20 21 20 19 18 18 18 18 18 21 23 24 24 24 24 24 23 23
25 22 20 18 18 18 17 18 18 20 21 21 22 21 20 19 17 16 16 18 17 17 18 18 19 18 17 17 18 20 21 23 24 24 25 24 23 23 22 22 23 23 24 25 27 27 27 27 27
22 20 18 19 20 21 21 22 22 23 22 19 19 24 24 21 18 17 18 19 20 19 19 21 21 20 20 20 20 20 21 22 24 26 27 27 27 27 28 27 27 27 28 28 27 28 28 29 29
19 22 23 25 24 23 23 23 24 25 26 27 24 25 25 25 24 24 21 19 19 21 22 23 23 24 24 24 23 24 24 24 24 25 26 27 28 29 31 32 32 31 31 32 32 32 31 32 31
21 24 24 26 29 26 25 26 25 24 27 29 31 30 28 27 26 25 26 24 23 21 23 25 24 26 27 27 28 28 28 28 28 27 28 29 30 30 31 32 33 34 36 36 36 37 35 35 35
25 24 25 27 28 28 28 29 27 26 28 28 29 30 31 30 28 27 27 28 28 27 26 27 27 27 28 30 31 31 31 32 32 31 31 31 32 33 34 34 35 34 35 38 40 40 40 40 40
28 25 25 28 28 30 31 29 30 28 29 28 29 33 33 31 30 30 29 29 29 30 30 29 30 30 30 31 33 35 35 34 34 34 34 34 34 35 37 39 39 40 39 38 38 40 42 43 44
30 29 28 29 29 30 32 26 28 28 30 32 33 34 35 34 32 32 33 33 32 31 30 29 29 30 30 32 34 35 36 38 38 38 39 39 38 38 40 41 42 45 46 44 43 42 42 43 43
32 33 29 28 30 33 34 28 28 30 35 36 36 36 34 32 32 33 32 33 33 31 31 30 31 32 32 32 33 34 35 35 38 41 43 43 43 42 42 43 45 46 48 50 50 49 49 48 47
34 34 34 30 31 36 36 36 32 35 35 36 34 34 33 32 32 32 32 32 32 34 36 37 35 35 36 37 36 35 36 40 41 41 43 44 46 46 46 45 46 47 49 50 51 52 53 53 54
37 38 38 34 35 37 35 37 33 35 34 33 31 29 30 30 32 36 39 40 40 40 39 37 37 36 35 37 39 41 41 40 41 44 46 46 46 46 47 47 48 49 50 49 50 52 53 53 54
42 41 36 38 37 37 35 33 32 34 35 34 33 33 31 32 34 35 36 38 40 41 41 42 43 39 36 37 38 39 41 44 47 47 48 48 49 50 51 50 49 49 50 52 53 53 54 55 55
39 36 36 37 35 36 38 38 34 35 36 36 35 35 36 38 39 40 39 38 38 38 39 41 43 46 47 45 44 42 42 44 46 49 51 54 56 56 55 55 55 55 54 55 56 56 56 56 57
36 34 37 37 40 40 42 45 39 35 37 38 37 38 39 40 40 41 41 42 41 41 41 41 42 44 45 46 48 49 48 48 47 49 51 53 55 59 59 57 57 58 58 57 56 58 59 59 58
34 36 38 41 42 46 41 44 46 42 42 40 39 38 38 40 43 46 47 47 47 47 47 48 47 47 47 48 50 51 53 54 54 55 56 56 57 58 61 60 60 60 61 62 63 63 61 61 60
37 39 42 44 46 51 42 44 50 45 44 42 43 44 45 48 49 52 52 52 52 50 50 51 53 53 52 52 52 54 56 58 60 61 63 63 63 63 65 65 66 66 67 68 67 69 71 72 71
41 42 43 46 45 48 49 48 46 45 46 46 47 51 54 56 55 55 57 55 54 53 52 53 55 56 56 57 59 61 61 62 62 63 66 69 70 71 70 71 73 72 72 72 74 74 74 74 76
43 44 45 45 47 47 46 52 51 52 52 53 56 57 57 58 57 58 59 58 56 56 57 59 61 62 63 64 66 67 68 68 69 69 70 70 72 79 83 83 83 83 83 81 82 84 84 83 79
43 43 40 45 47 49 52 55 55 56 55 55 56 56 56 56 55 56 56 57 59 63 65 66 66 67 68 68 69 71 72 73 73 75 77 77 78 81 84 87 86 87 89 87 83 85 86 88 89
41 41 44 47 51 57 58 58 58 53 53 53 54 54 55 56 57 58 60 63 65 67 68 70 70 71 72 74 75 76 77 76 76 77 78 81 83 85 86 88 90 92 93 93 91 89 88 90 91
44 48 50 48 53 56 57 61 58 54 55 57 58 57 58 58 61 63 65 67 68 70 72 74 75 75 76 77 78 79 80 81 82 82 83 84 85 86 90 92 93 93 92 94 96 99 96 92 89
50 48 46 50 53 53 57 63 59 57 58 58 58 58 60 64 67 69 70 71 73 74 75 77 78 79 80 80 81 83 84 85 86 87 88 89 88 88 88 89 91 95 98 98 97 98 98 99 96
Wind_Direction
55 36 21 12 8 9 1 351 357 17 21 23 15 16 19 26 24 21 24 29 30 28 18 339 341 352 352 8 39 52 80 100 314 277 276 277 270 268 273 276 272 277 282 265 256 250 247 249 253
30 22 7 358 356 353 347 344 342 352 2 11 11 4 5 14 16 15 16 20 21 27 26 18 2 307 299 323 335 347 359 5 290 257 261 268 270 269 270 276 280 277 281 269 254 246 236 237 240
358 355 350 339 340 342 342 339 342 350 349 351 349 348 343 340 342 340 348 349 1 7 9 12 14 10 331 285 277 291 287 281 280 290 282 273 268 267 264 263 267 272 272 270 265 258 252 244 242
338 337 333 330 333 335 337 335 341 341 343 344 349 343 336 331 326 321 314 314 320 330 335 346 348 354 360 359 325 285 272 274 274 272 270 265 268 272 272 270 265 264 266 264 263 264 257 257 257
331 328 326 328 326 329 331 328 332 333 338 339 343 340 339 344 337 327 321 314 308 308 309 313 317 324 334 339 335 326 299 272 264 264 265 263 256 258 261 264 267 267 264 262 260 258 259 262 261
325 323 319 321 324 321 321 311 314 328 329 324 320 319 326 332 328 332 332 325 316 306 297 293 292 295 299 304 310 312 307 300 288 268 262 264 261 257 254 256 255 256 258 259 259 256 255 259 263
322 318 311 311 311 308 303 298 306 316 317 310 305 303 304 314 316 317 302 295 301 302 299 295 291 286 285 285 284 287 289 289 291 289 282 269 265 262 257 257 258 258 257 255 253 254 254 252 253
312 309 302 301 302 302 298 294 296 302 308 313 309 303 300 302 304 303 299 296 287 289 293 291 289 288 288 284 282 280 280 280 278 277 274 272 270 267 263 259 260 259 259 260 259 257 256 256 254
304 298 297 293 298 293 295 294 292 295 303 314 312 303 308 303 292 287 289 292 296 298 297 294 290 289 286 280 276 273 273 271 270 269 270 272 272 270 271 268 262 260 258 258 260 261 261 260 258
300 295 293 289 289 287 291 295 296 295 298 307 299 302 305 308 312 304 293 292 289 289 289 291 297 296 290 283 279 277 273 270 268 266 265 262 263 265 267 265 266 266 263 262 261 259 259 262 262
297 292 289 287 285 286 291 296 299 300 302 295 297 302 307 312 312 310 307 299 291 285 279 281 279 278 280 281 277 276 276 275 270 267 263 262 260 260 261 263 263 265 266 264 262 262 261 260 260
289 290 289 288 284 284 288 293 304 306 306 302 302 299 303 309 305 301 302 296 286 281 276 273 272 271 269 269 268 271 271 269 269 268 266 262 261 260 261 261 260 260 262 264 265 262 262 262 262
287 286 284 285 286 290 293 295 298 301 297 300 303 299 299 303 302 296 294 293 289 280 277 275 270 268 265 263 263 261 261 264 266 267 267 265 262 261 261 262 262 261 260 259 260 263 263 264 264
283 280 278 277 280 285 288 291 291 291 291 296 296 301 307 306 300 294 290 292 293 288 287 280 277 271 266 264 263 262 262 264 266 267 269 270 268 265 263 264 264 263 262 263 261 260 260 261 262
283 280 279 280 282 284 284 287 290 291 290 292 293 299 300 303 294 290 288 287 286 289 289 287 283 276 274 267 263 263 263 260 260 263 263 266 269 269 267 266 265 266 264 262 262 262 261 260 260
283 282 282 286 288 285 286 286 290 288 289 288 289 293 298 298 292 287 287 289 290 290 286 282 282 281 277 273 270 264 264 267 265 263 261 259 258 259 261 265 267 267 268 266 263 262 261 261 261
284 286 288 287 287 284 282 282 281 286 283 285 287 291 292 290 286 282 280 282 285 286 286 281 279 280 279 277 274 269 265 260 262 264 265 266 264 262 260 259 260 262 264 266 265 264 263 262 262
283 284 282 282 280 280 284 286 287 279 280 282 284 285 286 287 287 286 283 281 278 279 281 282 279 275 275 275 274 272 269 269 266 259 258 261 264 266 266 262 259 258 260 263 264 265 266 266 264
281 281 281 284 280 280 280 287 289 289 294 293 293 289 286 280 278 282 284 284 285 287 289 287 284 281 276 272 271 271 270 265 263 265 267 267 264 262 262 262 262 262 262 261 263 264 264 265 266
278 277 281 279 279 282 286 285 286 289 291 291 290 289 286 284 283 280 279 280 282 284 284 285 287 281 275 274 273 271 266 266 266 263 262 261 261 265 267 265 263 265 262 262 262 260 260 262 263
273 278 277 277 277 278 282 283 285 286 286 285 287 289 291 290 290 290 288 285 282 280 278 277 275 277 280 278 274 271 268 266 263 264 265 264 264 262 261 263 266 267 264 264 266 264 261 259 260
277 277 278 280 281 282 283 286 283 282 281 286 289 289 289 291 291 291 292 291 288 284 282 277 274 271 270 270 271 272 272 271 267 264 264 264 265 265 264 263 264 265 265 264 262 260 260 261 259
276 277 280 282 283 284 285 289 289 286 286 286 288 290 288 288 290 291 289 286 284 282 278 275 272 271 271 271 271 271 270 269 269 268 266 263 261 260 262 264 265 265 264 262 259 256 255 256 256
279 279 279 279 280 282 287 284 288 292 294 297 297 295 292 291 292 292 290 288 285 282 280 280 281 281 280 278 274 272 270 269 270 270 269 267 265 264 262 260 261 263 265 264 262 260 258 258 256
276 274 274 275 279 283 282 282 285 289 291 293 295 294 292 291 290 289 288 287 284 281 281 281 281 279 278 277 276 276 274 274 271 269 266 266 266 266 266 266 266 265 264 264 265 264 261 260 260
274 273 271 277 279 278 279 283 292 293 292 293 292 290 291 289 288 288 286 284 282 281 281 280 280 279 279 279 278 277 275 274 273 274 272 269 268 268 266 267 268 268 268 267 263 263 265 262 260
271 269 275 274 274 278 282 285 291 291 290 288 289 288 286 285 283 281 280 279 280 280 280 280 280 278 277 276 276 276 276 276 274 271 270 269 268 267 265 265 267 270 271 270 269 267 265 264 264
271 274 274 279 281 282 286 289 289 288 285 285 285 283 282 280 280 279 278 278 278 279 280 281 281 281 280 280 280 279 278 277 277 276 275 273 272 271 270 268 266 266 266 266 269 271 271 269 268
272 275 280 280 278 281 287 288 287 287 289 286 282 280 277 277 277 277 276 276 276 277 277 278 280 280 281 282 282 283 282 282 282 281 280 279 277 274 273 273 274 273 271 271 270 269 269 268 265
280 284 285 282 285 281 277 284 285 287 283 281 280 279 275 272 272 273 274 276 276 277 278 278 279 279 280 281 283 285 285 284 284 283 283 281 280 278 276 274 272 271 271 271 271 270 270 270 269
Height
5878 5877 5877 5876 5877 5874 5873 5873 5870 5869 5868 5867 5866 5865 5865 5864 5863 5864 5861 5860 5859 5858 5858 5858 5858 5858 5858 5857 5857 5856 5856 5856 5857 5857 5857 5858 5859 5860 5861 5862 5862 5863 5863 5864 5865 5866 5867 5868 5869
5879 5878 5877 5876 5876 5874 5874 5872 5871 5869 5868 5867 5867 5866 5865 5865 5863 5862 5862 5861 5860 5859 5858 5858 5857 5857 5857 5858 5857 5857 5856 5857 5857 5857 5858 5858 5859 5859 5859 5860 5861 5861 5862 5863 5863 5864 5865 5866 5867
5879 5878 5878 5876 5875 5874 5873 5871 5870 5869 5868 5868 5867 5866 5865 5865 5864 5863 5862 5861 5860 5859 5859 5858 5858 5857 5856 5857 5857 5858 5858 5858 5858 5858 5858 5858 5859 5859 5859 5859 5859 5859 5859 5861 5861 5862 5863 5865 5866
5878 5878 5878 5876 5875 5874 5873 5872 5870 5869 5868 5867 5866 5866 5865 5864 5864 5862 5861 5861 5860 5859 5859 5858 5858 5857 5856 5855 5855 5856 5857 5857 5858 5858 5858 5858 5859 5858 5858 5858 5858 5858 5859 5859 5860 5861 5862 5862 5863
5877 5876 5876 5875 5874 5872 5872 5871 5870 5869 5867 5866 5865 5865 5864 5863 5863 5862 5861 5861 5860 5860 5859 5858 5858 5857 5857 5856 5855 5855 5855 5855 5856 5856 5856 5857 5857 5857 5857 5857 5857 5857 5857 5858 5858 5858 5860 5860 5861
5876 5875 5874 5874 5873 5871 5871 5869 5869 5868 5867 5865 5864 5863 5863 5862 5861 5861 5860 5860 5859 5858 5858 5857 5857 5857 5856 5856 5856 5855 5854 5854 5854 5854 5854 5854 5854 5855 5854 5854 5854 5854 5854 5855 5855 5856 5856 5857 5858
5875 5873 5871 5871 5871 5871 5869 5868 5867 5867 5865 5864 5863 5862 5862 5862 5861 5861 5859 5858 5857 5856 5856 5855 5855 5854 5854 5854 5854 5854 5853 5852 5852 5852 5851 5851 5851 5851 5851 5852 5852 5852 5852 5852 5852 5852 5853 5854 5855
5872 5871 5869 5868 5867 5868 5867 5866 5865 5864 5862 5862 5859 5859 5860 5861 5861 5859 5857 5856 5854 5853 5852 5852 5852 5852 5852 5852 5852 5851 5851 5851 5850 5849 5849 5849 5848 5848 5848 5849 5848 5848 5849 5849 5849 5849 5850 5850 5850
5869 5868 5866 5865 5864 5864 5863 5863 5863 5862 5859 5858 5856 5855 5857 5858 5858 5856 5855 5854 5853 5852 5851 5850 5849 5848 5848 5847 5847 5847 5847 5847 5848 5847 5847 5846 5846 5845 5845 5845 5845 5845 5845 5845 5845 5845 5846 5846 5846
5865 5863 5862 5862 5861 5861 5861 5861 5861 5860 5858 5857 5853 5852 5854 5854 5855 5854 5853 5852 5851 5850 5849 5848 5847 5846 5845 5844 5843 5843 5842 5842 5843 5843 5843 5843 5842 5842 5841 5841 5841 5840 5840 5841 5841 5841 5841 5841 5841
5861 5860 5859 5858 5858 5858 5857 5857 5857 5855 5855 5853 5853 5849 5849 5851 5851 5851 5850 5848 5847 5847 5846 5844 5843 5842 5841 5841 5839 5838 5837 5837 5837 5837 5837 5838 5838 5838 5837 5837 5836 5836 5836 5836 5836 5836 5836 5835 5836
5858 5856 5855 5854 5853 5854 5854 5854 5853 5851 5848 5846 5850 5848 5847 5847 5846 5845 5844 5843 5842 5841 5840 5839 5838 5837 5837 5836 5834 5834 5833 5832 5832 5831 5831 5832 5831 5832 5831 5831 5831 5831 5831 5831 5830 5831 5831 5830 5830
5855 5853 5851 5850 5847 5849 5849 5848 5849 5848 5844 5842 5841 5841 5843 5842 5841 5840 5838 5837 5836 5836 5834 5833 5833 5831 5830 5830 5829 5828 5827 5826 5826 5826 5826 5826 5826 5825 5824 5824 5824 5824 5824 5824 5824 5824 5825 5825 5825
5850 5849 5848 5846 5846 5846 5845 5844 5845 5844 5839 5839 5837 5835 5835 5835 5835 5834 5833 5832 5831 5830 5829 5828 5827 5826 5825 5823 5822 5822 5822 5821 5821 5820 5819 5820 5820 5820 5819 5818 5817 5817 5816 5816 5816 5816 5817 5817 5818
5842 5843 5843 5842 5842 5840 5840 5841 5838 5838 5836 5834 5831 5830 5829 5829 5828 5826 5826 5825 5824 5823 5823 5822 5821 5820 5819 5818 5816 5815 5814 5814 5813 5813 5813 5812 5812 5812 5811 5811 5810 5808 5808 5808 5808 5807 5807 5808 5808
5836 5836 5837 5836 5835 5833 5831 5836 5832 5831 5829 5826 5826 5825 5824 5823 5821 5819 5818 5817 5816 5816 5816 5815 5812 5812 5812 5811 5810 5809 5808 5807 5807 5805 5804 5802 5802 5802 5802 5802 5801 5800 5799 5800 5800 5799 5798 5798 5798
5828 5827 5830 5830 5828 5824 5824 5827 5827 5825 5820 5820 5820 5819 5818 5816 5814 5813 5812 5811 5810 5808 5808 5808 5806 5804 5803 5803 5803 5803 5801 5799 5799 5798 5796 5794 5794 5793 5793 5792 5791 5789 5789 5789 5789 5790 5789 5788 5788
5820 5820 5820 5822 5822 5816 5816 5816 5820 5816 5816 5815 5813 5811 5810 5808 5806 5806 5805 5804 5803 5802 5800 5799 5799 5798 5796 5794 5793 5792 5793 5793 5791 5788 5786 5786 5784 5783 5782 5782 5781 5780 5779 5778 5778 5777 5777 5778 5777
5812 5811 5810 5813 5811 5807 5809 5807 5809 5805 5804 5804 5805 5804 5803 5801 5801 5800 5798 5796 5794 5793 5792 5792 5790 5788 5788 5787 5785 5783 5781 5780 5780 5780 5779 5777 5775 5773 5771 5770 5769 5770 5769 5768 5766 5766 5765 5765 5765
5804 5802 5804 5802 5801 5797 5798 5798 5798 5797 5795 5794 5793 5794 5794 5793 5792 5791 5790 5789 5788 5787 5784 5782 5782 5780 5778 5776 5775 5775 5773 5769 5768 5768 5767 5765 5764 5763 5762 5761 5760 5758 5757 5756 5755 5754 5753 5753 5751
5794 5795 5794 5793 5792 5789 5787 5788 5789 5789 5787 5785 5785 5785 5783 5782 5781 5781 5780 5780 5779 5778 5777 5775 5772 5770 5769 5766 5764 5762 5760 5759 5757 5754 5753 5752 5751 5750 5748 5748 5747 5745 5745 5744 5743 5741 5740 5740 5740
5787 5787 5785 5785 5783 5783 5782 5778 5781 5780 5778 5777 5777 5776 5775 5773 5772 5770 5770 5770 5769 5767 5765 5763 5760 5758 5756 5753 5751 5749 5746 5744 5743 5743 5739 5737 5737 5736 5734 5733 5733 5733 5732 5730 5729 5728 5727 5727 5727
5780 5778 5777 5775 5774 5772 5774 5771 5766 5768 5769 5769 5767 5765 5764 5762 5761 5760 5759 5756 5755 5754 5753 5751 5749 5746 5743 5740 5739 5736 5733 5731 5728 5726 5724 5722 5720 5719 5720 5718 5717 5716 5716 5716 5715 5714 5713 5711 5711
5770 5769 5767 5765 5764 5762 5766 5762 5756 5756 5755 5755 5754 5753 5753 5750 5747 5745 5743 5742 5739 5737 5735 5734 5731 5729 5729 5728 5725 5724 5721 5719 5716 5712 5709 5707 5704 5702 5701 5701 5699 5698 5697 5697 5697 5697 5696 5696 5694
5759 5757 5755 5753 5753 5753 5751 5749 5750 5748 5746 5745 5745 5741 5738 5736 5733 5731 5727 5726 5723 5721 5720 5718 5717 5716 5713 5711 5710 5708 5706 5703 5700 5698 5695 5691 5688 5686 5683 5681 5681 5680 5679 5677 5677 5676 5675 5676 5676
5746 5746 5745 5743 5741 5741 5740 5736 5738 5735 5734 5734 5731 5728 5727 5722 5719 5717 5714 5710 5709 5707 5705 5703 5701 5699 5697 5694 5692 5690 5688 5686 5684 5680 5677 5674 5671 5668 5666 5662 5660 5658 5657 5656 5655 5655 5654 5653 5653
5736 5735 5738 5732 5731 5729 5728 5727 5728 5723 5722 5719 5717 5715 5713 5711 5707 5703 5700 5698 5694 5691 5688 5685 5683 5681 5679 5677 5675 5672 5669 5666 5664 5662 5658 5654 5651 5647 5645 5642 5640 5636 5633 5632 5632 5631 5630 5630 5631
5725 5725 5722 5722 5717 5712 5714 5715 5713 5714 5710 5708 5704 5700 5699 5696 5693 5690 5686 5683 5678 5673 5670 5666 5664 5661 5659 5656 5653 5651 5648 5645 5642 5638 5635 5633 5629 5625 5622 5619 5617 5613 5611 5610 5608 5605 5605 5606 5606
5713 5711 5711 5710 5703 5699 5699 5700 5697 5698 5697 5694 5691 5687 5683 5681 5678 5675 5670 5666 5662 5658 5654 5650 5647 5644 5640 5637 5633 5629 5625 5622 5618 5615 5613 5610 5607 5603 5599 5594 5591 5588 5586 5583 5581 5578 5578 5580 5582
5697 5698 5696 5691 5691 5685 5680 5686 5684 5685 5679 5675 5674 5672 5668 5663 5660 5657 5654 5650 5645 5641 5636 5632 5628 5623 5620 5616 5613 5609 5606 5600 5595 5590 5586 5583 5580 5576 5574 5571 5567 5562 5559 5556 5555 5554 5552 5550 5552